ROA201 SCAR-SCEL

Flight info

Callsign ROA201
Flight time 2h 1m
Altitude 37000
Route LOBAG5L LOBAG UQ803 SIMOK SIMOK7B
Aircraft A320/M-SDE3FGHIRWY/LB1

Departure

Time 2026-04-22 04:44
Airport Chacalluta International Airport (SCAR)

Arrival

Time 2026-04-22 06:46
Airport Comodoro Arturo Merino Benítez International Airport (SCEL)
Time Latitude Longitude Altitude Speed Heading
2026-04-22 04:30 -18.34956 -70.33651 155 ft 0 kts 108°
2026-04-22 04:34 -18.34953 -70.33664 155 ft 2 kts 108°
2026-04-22 04:34 -18.34947 -70.33681 155 ft 2 kts 108°
2026-04-22 04:34 -18.34944 -70.33699 155 ft 3 kts 76°
2026-04-22 04:34 -18.34951 -70.33715 155 ft 2 kts 45°
2026-04-22 04:35 -18.34963 -70.33728 155 ft 2 kts 45°
2026-04-22 04:35 -18.34973 -70.33738 155 ft 3 kts 26°
2026-04-22 04:35 -18.34979 -70.33741 155 ft 0 kts 15°
2026-04-22 04:38 -18.34970 -70.33739 155 ft 4 kts 15°
2026-04-22 04:38 -18.34927 -70.33724 155 ft 9 kts 19°
2026-04-22 04:38 -18.34850 -70.33695 155 ft 14 kts 20°
2026-04-22 04:38 -18.34757 -70.33661 156 ft 15 kts 18°
2026-04-22 04:39 -18.34690 -70.33637 157 ft 8 kts 18°
2026-04-22 04:39 -18.34609 -70.33607 159 ft 17 kts 20°
2026-04-22 04:39 -18.34475 -70.33552 162 ft 24 kts 14°
2026-04-22 04:39 -18.34351 -70.33512 165 ft 12 kts 18°
2026-04-22 04:40 -18.34249 -70.33475 168 ft 18 kts 20°
2026-04-22 04:40 -18.34163 -70.33443 171 ft 9 kts 19°
2026-04-22 04:40 -18.34118 -70.33426 172 ft 4 kts 19°
2026-04-22 04:40 -18.34099 -70.33419 172 ft 2 kts 19°
2026-04-22 04:41 -18.34091 -70.33417 173 ft 3 kts 19°
2026-04-22 04:41 -18.34060 -70.33407 173 ft 7 kts 14°
2026-04-22 04:41 -18.34011 -70.33416 174 ft 6 kts 333°
2026-04-22 04:41 -18.33982 -70.33440 175 ft 5 kts 313°
2026-04-22 04:42 -18.33972 -70.33454 174 ft 0 kts 304°
2026-04-22 04:43 -18.33959 -70.33478 174 ft 10 kts 296°
2026-04-22 04:43 -18.33946 -70.33541 174 ft 3 kts 245°
2026-04-22 04:43 -18.33964 -70.33551 174 ft 0 kts 202°
2026-04-22 04:44 -18.34043 -70.33580 172 ft 45 kts 199°
2026-04-22 04:44 -18.34582 -70.33778 154 ft 116 kts 199°
2026-04-22 04:44 -18.35515 -70.34125 209 ft 162 kts 200°
2026-04-22 04:44 -18.36582 -70.34498 872 ft 166 kts 193°
2026-04-22 04:45 -18.37812 -70.34555 1296 ft 189 kts 177°
2026-04-22 04:45 -18.39201 -70.34431 1659 ft 213 kts 174°
2026-04-22 04:45 -18.40762 -70.34262 2133 ft 238 kts 174°
2026-04-22 04:45 -18.42488 -70.34080 2712 ft 258 kts 174°
2026-04-22 04:46 -18.44303 -70.33902 3586 ft 264 kts 175°
2026-04-22 04:46 -18.46155 -70.33737 4528 ft 269 kts 175°
2026-04-22 04:46 -18.48024 -70.33583 5429 ft 273 kts 175°
2026-04-22 04:46 -18.49942 -70.33433 6319 ft 277 kts 175°
2026-04-22 04:47 -18.51878 -70.33283 7169 ft 281 kts 175°
2026-04-22 04:47 -18.53839 -70.33134 8016 ft 284 kts 175°
2026-04-22 04:47 -18.55817 -70.32982 8872 ft 287 kts 175°
2026-04-22 04:47 -18.57816 -70.32826 9719 ft 290 kts 175°
2026-04-22 04:48 -18.59849 -70.32641 10346 ft 301 kts 173°
2026-04-22 04:48 -18.62012 -70.32366 10610 ft 323 kts 172°
2026-04-22 04:48 -18.64281 -70.32032 11168 ft 333 kts 171°
2026-04-22 04:48 -18.66595 -70.31679 11864 ft 338 kts 171°
2026-04-22 04:49 -18.68939 -70.31324 12565 ft 342 kts 172°
2026-04-22 04:49 -18.71311 -70.30974 13254 ft 347 kts 172°
2026-04-22 04:49 -18.73685 -70.30630 13917 ft 351 kts 172°
2026-04-22 04:49 -18.76120 -70.30281 14491 ft 355 kts 172°
2026-04-22 04:50 -18.78585 -70.29930 15069 ft 360 kts 172°
2026-04-22 04:50 -18.81084 -70.29574 15630 ft 364 kts 172°
2026-04-22 04:50 -18.83616 -70.29215 16192 ft 369 kts 172°
2026-04-22 04:50 -18.86210 -70.28846 16762 ft 373 kts 173°
2026-04-22 04:51 -18.88797 -70.28480 17330 ft 378 kts 173°
2026-04-22 04:51 -18.91419 -70.28111 17890 ft 382 kts 173°
2026-04-22 04:51 -18.94073 -70.27739 18434 ft 386 kts 173°
2026-04-22 04:51 -18.96749 -70.27361 18915 ft 390 kts 173°
2026-04-22 04:52 -18.99456 -70.26976 19418 ft 393 kts 173°
2026-04-22 04:52 -19.02180 -70.26590 19916 ft 396 kts 173°
2026-04-22 04:52 -19.04925 -70.26218 20413 ft 399 kts 174°
2026-04-22 04:52 -19.07688 -70.25856 20921 ft 401 kts 174°
2026-04-22 04:53 -19.10479 -70.25496 21396 ft 404 kts 174°
2026-04-22 04:53 -19.13284 -70.25136 21874 ft 407 kts 174°
2026-04-22 04:53 -19.16104 -70.24771 22346 ft 410 kts 174°
2026-04-22 04:53 -19.18943 -70.24399 22809 ft 412 kts 174°
2026-04-22 04:54 -19.21767 -70.24030 23279 ft 415 kts 175°
2026-04-22 04:54 -19.24647 -70.23655 23728 ft 418 kts 175°
2026-04-22 04:54 -19.27543 -70.23274 24105 ft 420 kts 175°
2026-04-22 04:54 -19.30455 -70.22891 24483 ft 423 kts 175°
2026-04-22 04:55 -19.33379 -70.22506 24840 ft 425 kts 175°
2026-04-22 04:55 -19.36327 -70.22118 25206 ft 428 kts 175°
2026-04-22 04:55 -19.39293 -70.21725 25566 ft 431 kts 175°
2026-04-22 04:55 -19.42277 -70.21343 25935 ft 433 kts 178°
2026-04-22 04:56 -19.45284 -70.21259 26299 ft 434 kts 183°
2026-04-22 04:56 -19.48319 -70.21273 26661 ft 436 kts 183°
2026-04-22 04:56 -19.51360 -70.21286 27007 ft 439 kts 183°
2026-04-22 04:56 -19.54421 -70.21299 27343 ft 441 kts 183°
2026-04-22 04:57 -19.57498 -70.21311 27663 ft 444 kts 183°
2026-04-22 04:57 -19.60596 -70.21320 27985 ft 446 kts 183°
2026-04-22 04:57 -19.63706 -70.21330 28304 ft 449 kts 183°
2026-04-22 04:57 -19.66840 -70.21340 28626 ft 451 kts 184°
2026-04-22 04:58 -19.69991 -70.21353 28946 ft 454 kts 184°
2026-04-22 04:58 -19.73152 -70.21364 29250 ft 456 kts 184°
2026-04-22 04:58 -19.76334 -70.21377 29542 ft 459 kts 184°
2026-04-22 04:58 -19.79539 -70.21389 29851 ft 461 kts 184°
2026-04-22 04:59 -19.82760 -70.21398 30150 ft 464 kts 184°
2026-04-22 04:59 -19.85991 -70.21406 30394 ft 466 kts 184°
2026-04-22 04:59 -19.89243 -70.21417 30621 ft 469 kts 184°
2026-04-22 04:59 -19.92511 -70.21432 30850 ft 471 kts 184°
2026-04-22 05:00 -19.95802 -70.21444 31080 ft 473 kts 184°
2026-04-22 05:00 -19.99102 -70.21454 31305 ft 476 kts 184°
2026-04-22 05:00 -20.02418 -70.21465 31531 ft 478 kts 184°
2026-04-22 05:00 -20.05743 -70.21478 31845 ft 478 kts 184°
2026-04-22 05:01 -20.09066 -70.21489 32177 ft 478 kts 184°
2026-04-22 05:01 -20.12395 -70.21499 32497 ft 478 kts 184°
2026-04-22 05:01 -20.15678 -70.21509 32811 ft 478 kts 184°
2026-04-22 05:01 -20.19009 -70.21523 33103 ft 479 kts 184°
2026-04-22 05:02 -20.22341 -70.21537 33422 ft 479 kts 184°
2026-04-22 05:02 -20.25678 -70.21551 33745 ft 479 kts 184°
2026-04-22 05:02 -20.29023 -70.21565 34069 ft 480 kts 184°
2026-04-22 05:02 -20.32365 -70.21575 34369 ft 480 kts 184°
2026-04-22 05:03 -20.35701 -70.21585 34655 ft 480 kts 184°
2026-04-22 05:03 -20.39041 -70.21597 34953 ft 479 kts 184°
2026-04-22 05:03 -20.42376 -70.21611 35248 ft 479 kts 184°
2026-04-22 05:03 -20.45706 -70.21622 35533 ft 478 kts 184°
2026-04-22 05:04 -20.49009 -70.21633 35808 ft 478 kts 184°
2026-04-22 05:04 -20.52331 -70.21644 36088 ft 478 kts 184°
2026-04-22 05:04 -20.55678 -70.21657 36350 ft 477 kts 184°
2026-04-22 05:04 -20.58972 -70.21670 36608 ft 477 kts 184°
2026-04-22 05:05 -20.62305 -70.21681 36864 ft 477 kts 184°
2026-04-22 05:05 -20.64503 -70.21687 37017 ft 477 kts 184°
2026-04-22 05:05 -20.67824 -70.21697 37104 ft 481 kts 184°
2026-04-22 05:06 -20.74578 -70.21721 37111 ft 484 kts 184°
2026-04-22 05:06 -20.81284 -70.21744 37109 ft 484 kts 184°
2026-04-22 05:07 -20.88052 -70.21765 37111 ft 484 kts 184°
2026-04-22 05:07 -20.94778 -70.21787 37112 ft 485 kts 184°
2026-04-22 05:08 -21.01509 -70.21811 37108 ft 484 kts 184°
2026-04-22 05:08 -21.08239 -70.21839 37111 ft 485 kts 184°
2026-04-22 05:09 -21.14985 -70.21866 37111 ft 485 kts 184°
2026-04-22 05:09 -21.21717 -70.21890 37110 ft 485 kts 184°
2026-04-22 05:10 -21.28483 -70.21910 37108 ft 485 kts 184°
2026-04-22 05:10 -21.35213 -70.21927 37108 ft 485 kts 184°
2026-04-22 05:11 -21.41996 -70.21953 37110 ft 485 kts 184°
2026-04-22 05:11 -21.48726 -70.21974 37109 ft 485 kts 184°
2026-04-22 05:12 -21.55475 -70.21992 37111 ft 486 kts 185°
2026-04-22 05:12 -21.62226 -70.22018 37111 ft 486 kts 185°
2026-04-22 05:13 -21.68969 -70.22045 37114 ft 486 kts 185°
2026-04-22 05:13 -21.75741 -70.22062 37116 ft 486 kts 185°
2026-04-22 05:14 -21.82511 -70.22085 37116 ft 486 kts 185°
2026-04-22 05:14 -21.89276 -70.22171 37115 ft 483 kts 190°
2026-04-22 05:15 -21.95911 -70.23147 37116 ft 480 kts 194°
2026-04-22 05:15 -22.02499 -70.24183 37117 ft 480 kts 194°
2026-04-22 05:16 -22.09099 -70.25213 37113 ft 480 kts 194°
2026-04-22 05:16 -22.15715 -70.26250 37111 ft 480 kts 194°
2026-04-22 05:17 -22.22332 -70.27292 37110 ft 481 kts 194°
2026-04-22 05:17 -22.28944 -70.28340 37114 ft 481 kts 194°
2026-04-22 05:18 -22.38897 -70.29915 37120 ft 482 kts 194°
2026-04-22 05:18 -22.45540 -70.30968 37118 ft 482 kts 194°
2026-04-22 05:19 -22.52185 -70.32021 37118 ft 482 kts 194°
2026-04-22 05:19 -22.58815 -70.33069 37115 ft 482 kts 194°
2026-04-22 05:20 -22.65485 -70.34122 37316 ft 486 kts 195°
2026-04-22 05:20 -22.68836 -70.34652 37521 ft 486 kts 195°
2026-04-22 05:20 -22.72182 -70.35180 37741 ft 487 kts 195°
2026-04-22 05:21 -22.75535 -70.35711 37970 ft 487 kts 195°
2026-04-22 05:21 -22.78888 -70.36241 38190 ft 487 kts 195°
2026-04-22 05:21 -22.82239 -70.36770 38410 ft 487 kts 195°
2026-04-22 05:21 -22.85588 -70.37302 38626 ft 487 kts 195°
2026-04-22 05:22 -22.88955 -70.37754 38819 ft 491 kts 189°
2026-04-22 05:22 -22.92388 -70.37826 38993 ft 494 kts 186°
2026-04-22 05:22 -22.99260 -70.37865 39107 ft 494 kts 186°
2026-04-22 05:23 -23.06101 -70.37910 39109 ft 498 kts 186°
2026-04-22 05:23 -23.13074 -70.37969 39109 ft 501 kts 186°
2026-04-22 05:24 -23.20056 -70.38024 39118 ft 502 kts 186°
2026-04-22 05:24 -23.27046 -70.38077 39131 ft 502 kts 187°
2026-04-22 05:25 -23.34040 -70.38134 39143 ft 503 kts 187°
2026-04-22 05:25 -23.41044 -70.38179 39149 ft 503 kts 187°
2026-04-22 05:26 -23.48044 -70.38224 39153 ft 503 kts 187°
2026-04-22 05:26 -23.55047 -70.38274 39147 ft 503 kts 187°
2026-04-22 05:27 -23.62051 -70.38335 39141 ft 503 kts 187°
2026-04-22 05:27 -23.69020 -70.38397 39135 ft 504 kts 187°
2026-04-22 05:28 -23.76041 -70.38456 39125 ft 504 kts 187°
2026-04-22 05:28 -23.83062 -70.38463 39128 ft 506 kts 186°
2026-04-22 05:29 -23.90110 -70.38229 39132 ft 507 kts 184°
2026-04-22 05:29 -23.97163 -70.37900 39125 ft 507 kts 185°
2026-04-22 05:30 -24.04218 -70.37624 39127 ft 507 kts 185°
2026-04-22 05:30 -24.11227 -70.37407 39128 ft 506 kts 186°
2026-04-22 05:31 -24.18273 -70.37197 39129 ft 506 kts 185°
2026-04-22 05:31 -24.25319 -70.36968 39131 ft 507 kts 185°
2026-04-22 05:32 -24.32372 -70.36729 39131 ft 507 kts 185°
2026-04-22 05:32 -24.39426 -70.36480 39136 ft 507 kts 186°
2026-04-22 05:33 -24.46477 -70.36241 39134 ft 507 kts 186°
2026-04-22 05:33 -24.53524 -70.36013 39128 ft 506 kts 186°
2026-04-22 05:34 -24.60578 -70.35780 39127 ft 507 kts 186°
2026-04-22 05:34 -24.67621 -70.35542 39128 ft 507 kts 186°
2026-04-22 05:35 -24.74684 -70.35297 39136 ft 508 kts 186°
2026-04-22 05:35 -24.81740 -70.35053 39137 ft 507 kts 186°
2026-04-22 05:36 -24.88795 -70.34815 39133 ft 507 kts 186°
2026-04-22 05:36 -24.95841 -70.34580 39130 ft 507 kts 186°
2026-04-22 05:37 -25.02904 -70.34350 39132 ft 507 kts 186°
2026-04-22 05:37 -25.09957 -70.34124 39134 ft 507 kts 186°
2026-04-22 05:38 -25.17017 -70.33886 39137 ft 508 kts 186°
2026-04-22 05:38 -25.24088 -70.33642 39140 ft 508 kts 186°
2026-04-22 05:39 -25.31162 -70.33398 39141 ft 508 kts 187°
2026-04-22 05:39 -25.38182 -70.33158 39139 ft 508 kts 187°
2026-04-22 05:40 -25.45282 -70.32915 39139 ft 508 kts 187°
2026-04-22 05:40 -25.52348 -70.32681 39141 ft 508 kts 187°
2026-04-22 05:41 -25.59375 -70.32446 39142 ft 508 kts 187°
2026-04-22 05:41 -25.66449 -70.32205 39145 ft 508 kts 187°
2026-04-22 05:42 -25.73530 -70.31968 39137 ft 508 kts 187°
2026-04-22 05:42 -25.80606 -70.31725 39146 ft 508 kts 187°
2026-04-22 05:43 -25.87678 -70.31481 39150 ft 508 kts 187°
2026-04-22 05:43 -25.94741 -70.31242 39148 ft 508 kts 187°
2026-04-22 05:44 -26.01806 -70.31002 39147 ft 508 kts 187°
2026-04-22 05:44 -26.08885 -70.31023 39152 ft 498 kts 195°
2026-04-22 05:45 -26.15785 -70.31670 39146 ft 498 kts 195°
2026-04-22 05:45 -26.22706 -70.32302 39150 ft 499 kts 195°
2026-04-22 05:46 -26.28454 -70.32822 39149 ft 498 kts 195°
2026-04-22 05:46 -26.35367 -70.33457 39155 ft 498 kts 195°
2026-04-22 05:47 -26.42274 -70.34100 39154 ft 498 kts 195°
2026-04-22 05:47 -26.49181 -70.34739 39154 ft 498 kts 195°
2026-04-22 05:48 -26.56074 -70.35375 39155 ft 498 kts 195°
2026-04-22 05:48 -26.62971 -70.36011 39154 ft 497 kts 195°
2026-04-22 05:49 -26.69863 -70.36643 39158 ft 497 kts 196°
2026-04-22 05:49 -26.76740 -70.37280 39155 ft 496 kts 196°
2026-04-22 05:50 -26.83680 -70.37925 39150 ft 496 kts 196°
2026-04-22 05:50 -26.90562 -70.38566 39147 ft 496 kts 196°
2026-04-22 05:51 -26.97442 -70.39207 39151 ft 496 kts 196°
2026-04-22 05:51 -27.04142 -70.39823 39145 ft 497 kts 196°
2026-04-22 05:52 -27.11029 -70.40464 39146 ft 496 kts 196°
2026-04-22 05:52 -27.17916 -70.41114 39142 ft 496 kts 196°
2026-04-22 05:53 -27.24796 -70.41758 39139 ft 496 kts 197°
2026-04-22 05:53 -27.31673 -70.42402 39142 ft 496 kts 197°
2026-04-22 05:54 -27.38561 -70.43040 39141 ft 496 kts 197°
2026-04-22 05:54 -27.45445 -70.43682 39144 ft 496 kts 197°
2026-04-22 05:55 -27.52369 -70.44344 39146 ft 495 kts 197°
2026-04-22 05:55 -27.59242 -70.44992 39144 ft 496 kts 197°
2026-04-22 05:56 -27.66119 -70.45631 39146 ft 496 kts 197°
2026-04-22 05:56 -27.72986 -70.46285 39147 ft 495 kts 197°
2026-04-22 05:57 -27.79850 -70.46946 39149 ft 495 kts 197°
2026-04-22 05:57 -27.86679 -70.47587 39149 ft 495 kts 197°
2026-04-22 05:58 -27.93554 -70.48232 39153 ft 496 kts 198°
2026-04-22 05:58 -28.00429 -70.48887 39151 ft 496 kts 198°
2026-04-22 05:59 -28.07256 -70.49538 39150 ft 496 kts 198°
2026-04-22 05:59 -28.14193 -70.50195 39147 ft 496 kts 198°
2026-04-22 06:00 -28.21080 -70.50848 39151 ft 496 kts 198°
2026-04-22 06:00 -28.27963 -70.51506 39154 ft 496 kts 198°
2026-04-22 06:01 -28.34836 -70.52159 39155 ft 496 kts 198°
2026-04-22 06:01 -28.41663 -70.52814 39153 ft 495 kts 198°
2026-04-22 06:02 -28.48524 -70.53473 39157 ft 494 kts 198°
2026-04-22 06:02 -28.55379 -70.54125 39158 ft 494 kts 198°
2026-04-22 06:03 -28.62232 -70.54763 39161 ft 494 kts 198°
2026-04-22 06:03 -28.69077 -70.55396 39144 ft 493 kts 198°
2026-04-22 06:04 -28.75916 -70.56033 39140 ft 493 kts 198°
2026-04-22 06:04 -28.82757 -70.56680 39131 ft 493 kts 198°
2026-04-22 06:05 -28.89588 -70.57325 39149 ft 494 kts 198°
2026-04-22 06:05 -28.96438 -70.57974 39145 ft 493 kts 198°
2026-04-22 06:06 -29.03268 -70.58628 39150 ft 493 kts 198°
2026-04-22 06:06 -29.10065 -70.59287 39165 ft 493 kts 198°
2026-04-22 06:07 -29.16951 -70.59955 39176 ft 493 kts 198°
2026-04-22 06:07 -29.23783 -70.60616 39188 ft 491 kts 198°
2026-04-22 06:08 -29.30549 -70.61271 39188 ft 491 kts 198°
2026-04-22 06:08 -29.37356 -70.61933 39189 ft 491 kts 198°
2026-04-22 06:09 -29.44159 -70.62596 39189 ft 491 kts 198°
2026-04-22 06:09 -29.50959 -70.63269 39189 ft 490 kts 198°
2026-04-22 06:10 -29.57758 -70.63930 39189 ft 490 kts 198°
2026-04-22 06:10 -29.64557 -70.64589 39188 ft 490 kts 198°
2026-04-22 06:11 -29.71344 -70.65250 39177 ft 489 kts 198°
2026-04-22 06:11 -29.78131 -70.65918 39176 ft 489 kts 198°
2026-04-22 06:12 -29.84915 -70.66578 39173 ft 489 kts 198°
2026-04-22 06:12 -29.91695 -70.67246 39133 ft 485 kts 198°
2026-04-22 06:13 -29.95063 -70.67576 38993 ft 485 kts 198°
2026-04-22 06:13 -29.98431 -70.67909 38834 ft 486 kts 198°
2026-04-22 06:13 -30.01803 -70.68244 38575 ft 486 kts 198°
2026-04-22 06:13 -30.05180 -70.68579 38309 ft 487 kts 198°
2026-04-22 06:14 -30.08552 -70.68914 38056 ft 487 kts 198°
2026-04-22 06:14 -30.11931 -70.69243 37793 ft 488 kts 198°
2026-04-22 06:14 -30.15317 -70.69576 37532 ft 488 kts 198°
2026-04-22 06:14 -30.18699 -70.69913 37286 ft 487 kts 198°
2026-04-22 06:15 -30.22059 -70.70238 37109 ft 481 kts 198°
2026-04-22 06:15 -30.25386 -70.70556 37163 ft 480 kts 198°
2026-04-22 06:15 -30.32038 -70.71222 37158 ft 480 kts 198°
2026-04-22 06:16 -30.38645 -70.71884 37160 ft 479 kts 198°
2026-04-22 06:16 -30.45283 -70.72544 37156 ft 478 kts 197°
2026-04-22 06:17 -30.51917 -70.73212 37167 ft 479 kts 198°
2026-04-22 06:17 -30.58550 -70.73878 37146 ft 479 kts 198°
2026-04-22 06:18 -30.65219 -70.74545 37141 ft 482 kts 198°
2026-04-22 06:18 -30.71921 -70.75190 37157 ft 483 kts 197°
2026-04-22 06:19 -30.78572 -70.75824 37160 ft 484 kts 197°
2026-04-22 06:19 -30.85295 -70.76469 37159 ft 484 kts 197°
2026-04-22 06:20 -30.92022 -70.77121 37170 ft 485 kts 197°
2026-04-22 06:20 -30.98736 -70.77783 37176 ft 485 kts 198°
2026-04-22 06:21 -31.05466 -70.78442 37167 ft 485 kts 198°
2026-04-22 06:21 -31.12194 -70.79090 37178 ft 485 kts 197°
2026-04-22 06:22 -31.18919 -70.79742 37178 ft 485 kts 197°
2026-04-22 06:22 -31.25653 -70.80410 37186 ft 485 kts 198°
2026-04-22 06:23 -31.32369 -70.81070 37192 ft 485 kts 197°
2026-04-22 06:23 -31.39046 -70.81730 37200 ft 485 kts 197°
2026-04-22 06:24 -31.45767 -70.82388 36751 ft 482 kts 197°
2026-04-22 06:24 -31.49124 -70.82717 36535 ft 485 kts 197°
2026-04-22 06:24 -31.52495 -70.83053 36284 ft 490 kts 196°
2026-04-22 06:25 -31.55909 -70.83401 36036 ft 492 kts 196°
2026-04-22 06:25 -31.58163 -70.83622 35880 ft 485 kts 196°
2026-04-22 06:25 -31.61494 -70.83940 35534 ft 477 kts 196°
2026-04-22 06:25 -31.64817 -70.84260 34484 ft 480 kts 195°
2026-04-22 06:26 -31.68194 -70.84604 33119 ft 493 kts 194°
2026-04-22 06:26 -31.72723 -70.85069 32140 ft 488 kts 193°
2026-04-22 06:26 -31.75012 -70.85264 31530 ft 492 kts 189°
2026-04-22 06:26 -31.78424 -70.85198 30503 ft 486 kts 185°
2026-04-22 06:27 -31.81780 -70.85068 29162 ft 480 kts 185°
2026-04-22 06:27 -31.85062 -70.84937 28441 ft 460 kts 185°
2026-04-22 06:27 -31.88221 -70.84810 27842 ft 451 kts 185°
2026-04-22 06:27 -31.91334 -70.84696 27196 ft 446 kts 185°
2026-04-22 06:28 -31.94429 -70.84591 26587 ft 442 kts 185°
2026-04-22 06:28 -31.97493 -70.84489 25960 ft 439 kts 185°
2026-04-22 06:28 -32.00533 -70.84384 25354 ft 436 kts 185°
2026-04-22 06:28 -32.03554 -70.84281 24760 ft 433 kts 185°
2026-04-22 06:29 -32.06555 -70.84177 24167 ft 429 kts 185°
2026-04-22 06:29 -32.09531 -70.84072 23592 ft 426 kts 185°
2026-04-22 06:29 -32.12473 -70.83967 23015 ft 420 kts 185°
2026-04-22 06:29 -32.15373 -70.83861 22510 ft 414 kts 185°
2026-04-22 06:30 -32.18232 -70.83755 22009 ft 408 kts 185°
2026-04-22 06:30 -32.21050 -70.83652 21546 ft 402 kts 185°
2026-04-22 06:30 -32.23833 -70.83550 21069 ft 398 kts 185°
2026-04-22 06:30 -32.26595 -70.83452 20600 ft 395 kts 184°
2026-04-22 06:31 -32.29330 -70.83354 20118 ft 391 kts 184°
2026-04-22 06:31 -32.32036 -70.83257 19635 ft 388 kts 184°
2026-04-22 06:31 -32.34726 -70.83160 19153 ft 386 kts 184°
2026-04-22 06:31 -32.37376 -70.83068 18661 ft 385 kts 183°
2026-04-22 06:32 -32.40051 -70.82977 18130 ft 384 kts 183°
2026-04-22 06:32 -32.42719 -70.82885 17600 ft 383 kts 183°
2026-04-22 06:32 -32.45413 -70.82786 17091 ft 382 kts 182°
2026-04-22 06:32 -32.48027 -70.82691 16594 ft 380 kts 182°
2026-04-22 06:33 -32.50659 -70.82596 16094 ft 377 kts 182°
2026-04-22 06:33 -32.53268 -70.82502 15599 ft 373 kts 182°
2026-04-22 06:33 -32.55851 -70.82411 15115 ft 372 kts 181°
2026-04-22 06:33 -32.58441 -70.82320 14620 ft 373 kts 181°
2026-04-22 06:34 -32.61030 -70.82227 14247 ft 369 kts 181°
2026-04-22 06:34 -32.63554 -70.82132 14128 ft 358 kts 181°
2026-04-22 06:34 -32.65998 -70.82039 14001 ft 344 kts 180°
2026-04-22 06:34 -32.68353 -70.81954 13876 ft 334 kts 181°
2026-04-22 06:35 -32.70642 -70.81874 13746 ft 325 kts 181°
2026-04-22 06:35 -32.72871 -70.81794 13611 ft 316 kts 181°
2026-04-22 06:35 -32.75045 -70.81715 13455 ft 309 kts 181°
2026-04-22 06:35 -32.77204 -70.81639 13072 ft 311 kts 181°
2026-04-22 06:36 -32.79347 -70.81566 12844 ft 307 kts 181°
2026-04-22 06:36 -32.81479 -70.81492 12546 ft 306 kts 181°
2026-04-22 06:36 -32.83601 -70.81417 12282 ft 305 kts 180°
2026-04-22 06:36 -32.85713 -70.81340 11975 ft 302 kts 180°
2026-04-22 06:37 -32.87806 -70.81263 11450 ft 300 kts 180°
2026-04-22 06:37 -32.89883 -70.81188 10910 ft 298 kts 180°
2026-04-22 06:37 -32.91943 -70.81144 10380 ft 294 kts 186°
2026-04-22 06:37 -32.93961 -70.81419 9826 ft 291 kts 189°
2026-04-22 06:38 -32.95961 -70.81722 9222 ft 288 kts 189°
2026-04-22 06:38 -32.97966 -70.82024 8441 ft 292 kts 188°
2026-04-22 06:38 -32.99973 -70.82321 7979 ft 283 kts 186°
2026-04-22 06:38 -33.01866 -70.82318 7765 ft 264 kts 178°
2026-04-22 06:39 -33.03677 -70.82218 7343 ft 257 kts 178°
2026-04-22 06:39 -33.05458 -70.82122 6818 ft 255 kts 177°
2026-04-22 06:39 -33.07227 -70.82023 6278 ft 253 kts 177°
2026-04-22 06:39 -33.08927 -70.81917 6021 ft 239 kts 176°
2026-04-22 06:40 -33.10549 -70.81803 5891 ft 223 kts 177°
2026-04-22 06:40 -33.12035 -70.81717 5760 ft 210 kts 177°
2026-04-22 06:40 -33.13487 -70.81639 5502 ft 204 kts 177°
2026-04-22 06:40 -33.14875 -70.81565 5204 ft 202 kts 177°
2026-04-22 06:41 -33.16253 -70.81491 5021 ft 200 kts 177°
2026-04-22 06:41 -33.17641 -70.81417 5004 ft 199 kts 177°
2026-04-22 06:41 -33.19029 -70.81343 5007 ft 199 kts 177°
2026-04-22 06:41 -33.20419 -70.81269 4859 ft 199 kts 177°
2026-04-22 06:42 -33.21794 -70.81196 4645 ft 195 kts 177°
2026-04-22 06:42 -33.23133 -70.81124 4375 ft 190 kts 177°
2026-04-22 06:42 -33.24441 -70.81054 4122 ft 186 kts 177°
2026-04-22 06:42 -33.25722 -70.80986 3878 ft 182 kts 177°
2026-04-22 06:43 -33.26975 -70.80919 3642 ft 179 kts 177°
2026-04-22 06:43 -33.28191 -70.80854 3424 ft 169 kts 177°
2026-04-22 06:43 -33.29326 -70.80793 3178 ft 158 kts 177°
2026-04-22 06:43 -33.30394 -70.80736 2955 ft 150 kts 177°
2026-04-22 06:44 -33.31414 -70.80681 2752 ft 147 kts 177°
2026-04-22 06:44 -33.32447 -70.80626 2536 ft 146 kts 177°
2026-04-22 06:44 -33.33457 -70.80572 2330 ft 145 kts 177°
2026-04-22 06:44 -33.34448 -70.80519 2138 ft 144 kts 178°
2026-04-22 06:45 -33.35443 -70.80466 1948 ft 143 kts 178°
2026-04-22 06:45 -33.36431 -70.80412 1747 ft 142 kts 178°
2026-04-22 06:45 -33.37413 -70.80361 1592 ft 141 kts 178°
2026-04-22 06:45 -33.38301 -70.80315 1573 ft 108 kts 177°
2026-04-22 06:46 -33.38881 -70.80282 1574 ft 63 kts 177°
2026-04-22 06:46 -33.39221 -70.80259 1573 ft 29 kts 170°
2026-04-22 06:46 -33.39393 -70.80152 1569 ft 19 kts 148°
2026-04-22 06:46 -33.39493 -70.80079 1566 ft 11 kts 139°
2026-04-22 06:47 -33.39528 -70.80000 1565 ft 11 kts 102°
2026-04-22 06:47 -33.39529 -70.79944 1565 ft 4 kts 88°
2026-04-22 06:47 -33.39528 -70.79908 1565 ft 4 kts 88°
2026-04-22 06:47 -33.39526 -70.79847 1565 ft 9 kts 88°
2026-04-22 06:48 -33.39560 -70.79796 1565 ft 9 kts 198°
2026-04-22 06:48 -33.39601 -70.79805 1565 ft 7 kts 179°
2026-04-22 06:48 -33.39608 -70.79805 1565 ft 0 kts 178°